CSCLB KFXE-KABQ

Flight info

Callsign CSCLB
Flight time 4h 1m
Altitude 38000
Route BNICE2 DOLIE Y280 REMIS ROZZI HRV CIDOR/N0457F400 POPSY PODDE HULZE TXO MIERA2
Aircraft CL60/M-SBDE1E2E3FGHIJ1J4J5J7M3RWXYZ/LB1V1D1

Departure

Time 2026-05-06 09:07
Airport Fort Lauderdale Executive Airport (KFXE)

Arrival

Time 2026-05-06 13:08
Airport Albuquerque International Sunport (KABQ)
Time Latitude Longitude Altitude Speed Heading
2026-05-06 07:52 26.20119 -80.15929 14 ft 0 kts 359°
2026-05-06 09:01 26.20135 -80.15969 14 ft 9 kts 248°
2026-05-06 09:01 26.20128 -80.16037 14 ft 9 kts 268°
2026-05-06 09:01 26.20126 -80.16133 14 ft 15 kts 268°
2026-05-06 09:02 26.20103 -80.16240 14 ft 14 kts 214°
2026-05-06 09:02 26.20017 -80.16284 14 ft 13 kts 178°
2026-05-06 09:02 26.19921 -80.16272 14 ft 14 kts 171°
2026-05-06 09:02 26.19836 -80.16325 14 ft 14 kts 252°
2026-05-06 09:03 26.19823 -80.16446 14 ft 16 kts 264°
2026-05-06 09:03 26.19810 -80.16586 14 ft 19 kts 263°
2026-05-06 09:03 26.19794 -80.16740 14 ft 21 kts 263°
2026-05-06 09:03 26.19780 -80.16911 14 ft 23 kts 266°
2026-05-06 09:04 26.19761 -80.17082 14 ft 22 kts 264°
2026-05-06 09:04 26.19745 -80.17247 14 ft 21 kts 264°
2026-05-06 09:04 26.19728 -80.17421 14 ft 23 kts 264°
2026-05-06 09:04 26.19710 -80.17608 14 ft 25 kts 263°
2026-05-06 09:05 26.19692 -80.17789 14 ft 23 kts 264°
2026-05-06 09:05 26.19676 -80.17955 14 ft 20 kts 264°
2026-05-06 09:05 26.19682 -80.18054 14 ft 4 kts 303°
2026-05-06 09:05 26.19685 -80.18059 14 ft 5 kts 309°
2026-05-06 09:06 26.19747 -80.18071 14 ft 8 kts 40°
2026-05-06 09:06 26.19782 -80.17848 14 ft 68 kts 85°
2026-05-06 09:06 26.19863 -80.16985 21 ft 150 kts 82°
2026-05-06 09:06 26.19998 -80.15729 521 ft 176 kts 82°
2026-05-06 09:07 26.20167 -80.14260 1200 ft 207 kts 80°
2026-05-06 09:07 26.20474 -80.12657 2124 ft 224 kts 69°
2026-05-06 09:07 26.21235 -80.11170 3311 ft 226 kts 47°
2026-05-06 09:07 26.22449 -80.10103 4358 ft 236 kts 28°
2026-05-06 09:08 26.24040 -80.09479 5258 ft 250 kts
2026-05-06 09:08 26.25751 -80.09588 6368 ft 255 kts 346°
2026-05-06 09:08 26.27392 -80.10407 7297 ft 266 kts 323°
2026-05-06 09:08 26.28637 -80.11855 8538 ft 264 kts 304°
2026-05-06 09:09 26.29412 -80.13707 9485 ft 272 kts 288°
2026-05-06 09:09 26.29642 -80.15819 10366 ft 283 kts 270°
2026-05-06 09:09 26.29478 -80.17962 11489 ft 279 kts 268°
2026-05-06 09:09 26.29379 -80.20107 12365 ft 283 kts 272°
2026-05-06 09:10 26.29436 -80.22336 12993 ft 296 kts 277°
2026-05-06 09:10 26.29662 -80.24648 13631 ft 307 kts 281°
2026-05-06 09:10 26.30059 -80.27011 14249 ft 317 kts 285°
2026-05-06 09:10 26.30625 -80.29408 14876 ft 326 kts 288°
2026-05-06 09:11 26.31061 -80.31915 15497 ft 337 kts 278°
2026-05-06 09:11 26.31270 -80.34535 16104 ft 344 kts 278°
2026-05-06 09:11 26.31485 -80.37195 16743 ft 348 kts 278°
2026-05-06 09:11 26.31706 -80.39885 17378 ft 352 kts 278°
2026-05-06 09:12 26.31932 -80.42599 17989 ft 355 kts 278°
2026-05-06 09:12 26.32161 -80.45335 18626 ft 357 kts 279°
2026-05-06 09:12 26.32394 -80.48086 19252 ft 360 kts 279°
2026-05-06 09:12 26.32630 -80.50860 19887 ft 362 kts 279°
2026-05-06 09:13 26.32867 -80.53650 20502 ft 364 kts 278°
2026-05-06 09:13 26.33107 -80.56448 21136 ft 365 kts 279°
2026-05-06 09:13 26.33347 -80.59255 21760 ft 366 kts 279°
2026-05-06 09:13 26.33589 -80.62064 22393 ft 365 kts 279°
2026-05-06 09:14 26.33830 -80.64874 23038 ft 366 kts 279°
2026-05-06 09:14 26.34073 -80.67699 23672 ft 367 kts 278°
2026-05-06 09:14 26.34316 -80.70522 24311 ft 368 kts 279°
2026-05-06 09:14 26.34560 -80.73346 24939 ft 368 kts 279°
2026-05-06 09:15 26.34806 -80.76201 25341 ft 375 kts 279°
2026-05-06 09:15 26.35059 -80.79119 25687 ft 382 kts 279°
2026-05-06 09:15 26.35313 -80.82077 26118 ft 387 kts 279°
2026-05-06 09:15 26.35570 -80.85068 26586 ft 390 kts 279°
2026-05-06 09:16 26.35827 -80.88072 27093 ft 391 kts 279°
2026-05-06 09:16 26.36315 -80.91044 27553 ft 387 kts 291°
2026-05-06 09:16 26.37517 -80.93738 28034 ft 384 kts 307°
2026-05-06 09:16 26.39330 -80.95959 28467 ft 385 kts 316°
2026-05-06 09:17 26.41319 -80.98041 28899 ft 387 kts 316°
2026-05-06 09:17 26.43303 -81.00126 29284 ft 389 kts 316°
2026-05-06 09:17 26.45290 -81.02216 29645 ft 391 kts 316°
2026-05-06 09:17 26.47287 -81.04317 29989 ft 393 kts 316°
2026-05-06 09:18 26.49322 -81.06458 30344 ft 395 kts 316°
2026-05-06 09:18 26.51343 -81.08586 30701 ft 396 kts 317°
2026-05-06 09:18 26.53365 -81.10718 31013 ft 398 kts 316°
2026-05-06 09:18 26.55391 -81.12854 31301 ft 400 kts 316°
2026-05-06 09:19 26.57415 -81.14990 31562 ft 402 kts 317°
2026-05-06 09:19 26.59457 -81.17146 31843 ft 403 kts 317°
2026-05-06 09:19 26.61497 -81.19300 32137 ft 403 kts 317°
2026-05-06 09:19 26.63540 -81.21458 32392 ft 405 kts 317°
2026-05-06 09:20 26.65590 -81.23634 32629 ft 406 kts 317°
2026-05-06 09:20 26.67634 -81.25807 32916 ft 405 kts 317°
2026-05-06 09:20 26.69676 -81.27977 33270 ft 404 kts 317°
2026-05-06 09:20 26.71722 -81.30154 33632 ft 402 kts 317°
2026-05-06 09:21 26.73758 -81.32321 34028 ft 400 kts 317°
2026-05-06 09:21 26.75774 -81.34466 34428 ft 397 kts 317°
2026-05-06 09:21 26.77767 -81.36589 34760 ft 395 kts 317°
2026-05-06 09:21 26.79755 -81.38707 35107 ft 393 kts 316°
2026-05-06 09:22 26.81728 -81.40811 35412 ft 392 kts 316°
2026-05-06 09:22 26.83700 -81.42914 35702 ft 390 kts 317°
2026-05-06 09:22 26.85658 -81.45003 35960 ft 389 kts 316°
2026-05-06 09:22 26.87614 -81.47091 36159 ft 389 kts 316°
2026-05-06 09:23 26.89576 -81.49187 36329 ft 390 kts 316°
2026-05-06 09:23 26.91542 -81.51288 36475 ft 391 kts 316°
2026-05-06 09:23 26.93502 -81.53384 36687 ft 390 kts 316°
2026-05-06 09:23 26.95470 -81.55489 36889 ft 389 kts 316°
2026-05-06 09:24 26.97427 -81.57584 37084 ft 389 kts 316°
2026-05-06 09:24 26.99379 -81.59675 37248 ft 389 kts 316°
2026-05-06 09:24 27.01336 -81.61771 37426 ft 388 kts 316°
2026-05-06 09:24 27.03283 -81.63858 37580 ft 388 kts 316°
2026-05-06 09:25 27.05232 -81.65949 37716 ft 388 kts 316°
2026-05-06 09:25 27.07185 -81.68045 37872 ft 388 kts 315°
2026-05-06 09:25 27.09131 -81.70135 38046 ft 387 kts 316°
2026-05-06 09:26 27.13058 -81.74355 38053 ft 393 kts 315°
2026-05-06 09:26 27.17030 -81.78627 38063 ft 397 kts 315°
2026-05-06 09:27 27.21046 -81.82953 38052 ft 399 kts 315°
2026-05-06 09:27 27.25018 -81.87312 38044 ft 400 kts 312°
2026-05-06 09:28 27.28150 -81.92445 38052 ft 401 kts 298°
2026-05-06 09:28 27.29948 -81.98391 38054 ft 407 kts 285°
2026-05-06 09:29 27.31106 -82.04622 38054 ft 408 kts 285°
2026-05-06 09:29 27.32263 -82.10851 38041 ft 408 kts 285°
2026-05-06 09:30 27.33420 -82.17086 38033 ft 408 kts 285°
2026-05-06 09:30 27.34574 -82.23317 38030 ft 407 kts 285°
2026-05-06 09:31 27.35725 -82.29539 38033 ft 407 kts 285°
2026-05-06 09:31 27.36875 -82.35772 38030 ft 406 kts 285°
2026-05-06 09:32 27.38020 -82.41987 38031 ft 406 kts 285°
2026-05-06 09:32 27.39163 -82.48203 38038 ft 406 kts 285°
2026-05-06 09:33 27.40301 -82.54415 38041 ft 406 kts 285°
2026-05-06 09:33 27.41453 -82.60619 38040 ft 406 kts 285°
2026-05-06 09:34 27.42613 -82.66827 38037 ft 406 kts 285°
2026-05-06 09:34 27.43769 -82.73032 38037 ft 406 kts 285°
2026-05-06 09:35 27.44924 -82.79242 38030 ft 406 kts 285°
2026-05-06 09:35 27.46073 -82.85445 38031 ft 406 kts 284°
2026-05-06 09:36 27.47218 -82.91637 38032 ft 405 kts 285°
2026-05-06 09:36 27.48361 -82.97835 38030 ft 405 kts 284°
2026-05-06 09:37 27.49500 -83.04021 38030 ft 405 kts 284°
2026-05-06 09:37 27.50635 -83.10207 38030 ft 404 kts 285°
2026-05-06 09:38 27.51764 -83.16384 38029 ft 404 kts 284°
2026-05-06 09:38 27.52892 -83.22570 38033 ft 404 kts 284°
2026-05-06 09:39 27.54017 -83.28746 38031 ft 404 kts 284°
2026-05-06 09:39 27.55139 -83.34927 38038 ft 403 kts 284°
2026-05-06 09:40 27.56259 -83.41111 38028 ft 404 kts 284°
2026-05-06 09:40 27.57933 -83.50387 38029 ft 404 kts 284°
2026-05-06 09:41 27.59045 -83.56574 38027 ft 404 kts 284°
2026-05-06 09:41 27.60155 -83.62759 38030 ft 403 kts 284°
2026-05-06 09:42 27.61264 -83.68957 38027 ft 404 kts 283°
2026-05-06 09:42 27.62367 -83.75140 38030 ft 403 kts 284°
2026-05-06 09:43 27.63467 -83.81322 38033 ft 403 kts 283°
2026-05-06 09:43 27.64563 -83.87505 38032 ft 403 kts 283°
2026-05-06 09:44 27.65659 -83.93692 38032 ft 402 kts 283°
2026-05-06 09:44 27.66749 -83.99869 38032 ft 402 kts 283°
2026-05-06 09:45 27.67836 -84.06044 38031 ft 403 kts 283°
2026-05-06 09:45 27.68921 -84.12224 38030 ft 403 kts 283°
2026-05-06 09:46 27.70006 -84.18414 38026 ft 403 kts 283°
2026-05-06 09:46 27.71087 -84.24602 38026 ft 403 kts 283°
2026-05-06 09:47 27.72163 -84.30782 38026 ft 402 kts 283°
2026-05-06 09:47 27.73235 -84.36951 38028 ft 401 kts 283°
2026-05-06 09:48 27.74303 -84.43117 38021 ft 402 kts 283°
2026-05-06 09:48 27.75369 -84.49286 38022 ft 402 kts 283°
2026-05-06 09:49 27.76432 -84.55455 38018 ft 402 kts 283°
2026-05-06 09:49 27.77493 -84.61635 38019 ft 402 kts 283°
2026-05-06 09:50 27.78556 -84.67836 38018 ft 403 kts 282°
2026-05-06 09:50 27.79614 -84.74031 38020 ft 402 kts 282°
2026-05-06 09:51 27.80666 -84.80210 38014 ft 401 kts 282°
2026-05-06 09:51 27.81715 -84.86379 38010 ft 400 kts 282°
2026-05-06 09:52 27.82760 -84.92544 38012 ft 400 kts 282°
2026-05-06 09:52 27.83802 -84.98705 38014 ft 400 kts 282°
2026-05-06 09:53 27.84842 -85.04867 38008 ft 400 kts 282°
2026-05-06 09:53 27.85876 -85.11017 38009 ft 400 kts 282°
2026-05-06 09:54 27.86907 -85.17167 38012 ft 400 kts 282°
2026-05-06 09:54 27.87937 -85.23326 38012 ft 400 kts 282°
2026-05-06 09:55 27.89383 -85.29356 38011 ft 399 kts 289°
2026-05-06 09:55 27.91194 -85.35277 38011 ft 400 kts 289°
2026-05-06 09:56 27.92998 -85.41207 38010 ft 400 kts 289°
2026-05-06 09:56 27.94796 -85.47134 38007 ft 400 kts 289°
2026-05-06 09:57 27.96588 -85.53057 38011 ft 399 kts 289°
2026-05-06 09:57 27.98378 -85.58989 38006 ft 399 kts 289°
2026-05-06 09:58 28.00164 -85.64922 37998 ft 399 kts 289°
2026-05-06 09:58 28.01948 -85.70857 37999 ft 399 kts 288°
2026-05-06 09:59 28.03726 -85.76785 38002 ft 398 kts 288°
2026-05-06 09:59 28.05498 -85.82709 38004 ft 398 kts 288°
2026-05-06 10:00 28.07267 -85.88628 38009 ft 397 kts 288°
2026-05-06 10:00 28.09033 -85.94552 37988 ft 398 kts 288°
2026-05-06 10:01 28.10798 -86.00481 37987 ft 398 kts 288°
2026-05-06 10:01 28.12558 -86.06408 37985 ft 398 kts 288°
2026-05-06 10:02 28.14318 -86.12342 37989 ft 399 kts 288°
2026-05-06 10:02 28.16078 -86.18290 37986 ft 399 kts 288°
2026-05-06 10:03 28.17837 -86.24241 37982 ft 400 kts 288°
2026-05-06 10:03 28.19594 -86.30201 37985 ft 399 kts 288°
2026-05-06 10:04 28.21347 -86.36152 37985 ft 399 kts 288°
2026-05-06 10:04 28.23097 -86.42109 37987 ft 399 kts 288°
2026-05-06 10:05 28.24846 -86.48070 37989 ft 399 kts 288°
2026-05-06 10:05 28.26590 -86.54028 37991 ft 399 kts 288°
2026-05-06 10:06 28.28335 -86.59994 37995 ft 399 kts 288°
2026-05-06 10:06 28.30076 -86.65962 37986 ft 399 kts 287°
2026-05-06 10:07 28.32021 -86.71849 37991 ft 401 kts 295°
2026-05-06 10:07 28.34708 -86.77397 37987 ft 402 kts 296°
2026-05-06 10:08 28.37399 -86.82944 37984 ft 402 kts 296°
2026-05-06 10:08 28.40087 -86.88495 37982 ft 402 kts 296°
2026-05-06 10:09 28.42771 -86.94048 37978 ft 402 kts 296°
2026-05-06 10:09 28.45453 -86.99607 37983 ft 402 kts 296°
2026-05-06 10:10 28.48129 -87.05163 37983 ft 402 kts 296°
2026-05-06 10:10 28.50804 -87.10725 37989 ft 402 kts 296°
2026-05-06 10:11 28.53474 -87.16286 37986 ft 402 kts 296°
2026-05-06 10:11 28.56142 -87.21850 37987 ft 402 kts 296°
2026-05-06 10:12 28.58809 -87.27419 37984 ft 402 kts 296°
2026-05-06 10:12 28.61471 -87.32987 37983 ft 402 kts 296°
2026-05-06 10:13 28.64133 -87.38562 37982 ft 402 kts 296°
2026-05-06 10:13 28.66793 -87.44140 37985 ft 402 kts 296°
2026-05-06 10:14 28.69450 -87.49717 37979 ft 402 kts 296°
2026-05-06 10:14 28.72105 -87.55300 37981 ft 402 kts 296°
2026-05-06 10:15 28.74763 -87.60896 37978 ft 403 kts 296°
2026-05-06 10:15 28.77424 -87.66508 37978 ft 404 kts 295°
2026-05-06 10:16 28.80094 -87.72146 37976 ft 404 kts 295°
2026-05-06 10:16 28.82757 -87.77776 37975 ft 404 kts 295°
2026-05-06 10:17 28.85413 -87.83401 37967 ft 403 kts 295°
2026-05-06 10:17 28.88062 -87.89018 37972 ft 402 kts 295°
2026-05-06 10:18 28.90705 -87.94631 37967 ft 402 kts 295°
2026-05-06 10:18 28.93348 -88.00252 37952 ft 403 kts 295°
2026-05-06 10:19 28.95988 -88.05875 37948 ft 403 kts 295°
2026-05-06 10:19 28.98626 -88.11500 37949 ft 403 kts 295°
2026-05-06 10:20 29.01260 -88.17127 37958 ft 402 kts 295°
2026-05-06 10:20 29.03890 -88.22751 37948 ft 402 kts 295°
2026-05-06 10:21 29.06518 -88.28379 37951 ft 402 kts 295°
2026-05-06 10:21 29.09142 -88.34006 37957 ft 402 kts 294°
2026-05-06 10:22 29.11765 -88.39641 37960 ft 402 kts 294°
2026-05-06 10:22 29.14387 -88.45279 37958 ft 402 kts 294°
2026-05-06 10:23 29.17002 -88.50914 37959 ft 402 kts 294°
2026-05-06 10:23 29.19616 -88.56550 37956 ft 402 kts 294°
2026-05-06 10:24 29.22225 -88.62187 37956 ft 401 kts 294°
2026-05-06 10:24 29.24835 -88.67834 37952 ft 402 kts 294°
2026-05-06 10:25 29.27439 -88.73473 37956 ft 401 kts 294°
2026-05-06 10:25 29.30036 -88.79107 37952 ft 401 kts 294°
2026-05-06 10:26 29.32629 -88.84742 37952 ft 400 kts 294°
2026-05-06 10:26 29.35218 -88.90373 37950 ft 400 kts 294°
2026-05-06 10:27 29.37806 -88.96013 37949 ft 401 kts 294°
2026-05-06 10:27 29.40395 -89.01662 37949 ft 401 kts 294°
2026-05-06 10:28 29.42981 -89.07312 37948 ft 401 kts 294°
2026-05-06 10:28 29.45562 -89.12959 37947 ft 401 kts 293°
2026-05-06 10:29 29.48140 -89.18607 37949 ft 400 kts 293°
2026-05-06 10:29 29.50714 -89.24255 37951 ft 400 kts 294°
2026-05-06 10:30 29.53283 -89.29899 37953 ft 400 kts 293°
2026-05-06 10:30 29.55851 -89.35552 37950 ft 400 kts 294°
2026-05-06 10:31 29.58413 -89.41199 37947 ft 400 kts 293°
2026-05-06 10:31 29.60972 -89.46846 37941 ft 400 kts 293°
2026-05-06 10:32 29.63530 -89.52501 37943 ft 400 kts 293°
2026-05-06 10:32 29.66086 -89.58157 37941 ft 400 kts 293°
2026-05-06 10:33 29.68640 -89.63818 37942 ft 399 kts 293°
2026-05-06 10:33 29.71190 -89.69481 37943 ft 400 kts 293°
2026-05-06 10:34 29.73738 -89.75143 37940 ft 399 kts 292°
2026-05-06 10:34 29.76276 -89.80793 37940 ft 398 kts 292°
2026-05-06 10:35 29.78811 -89.86446 37937 ft 398 kts 292°
2026-05-06 10:35 29.81346 -89.92106 37940 ft 399 kts 292°
2026-05-06 10:36 29.83880 -89.97773 37942 ft 399 kts 292°
2026-05-06 10:36 29.86320 -90.03500 37949 ft 398 kts 290°
2026-05-06 10:37 29.88663 -90.09264 37951 ft 398 kts 291°
2026-05-06 10:37 29.91000 -90.15022 37950 ft 398 kts 290°
2026-05-06 10:38 29.93339 -90.20791 37949 ft 398 kts 290°
2026-05-06 10:38 29.95674 -90.26558 37957 ft 398 kts 290°
2026-05-06 10:39 29.98006 -90.32326 37938 ft 398 kts 290°
2026-05-06 10:39 30.00336 -90.38098 37942 ft 397 kts 290°
2026-05-06 10:40 30.02661 -90.43867 37939 ft 397 kts 290°
2026-05-06 10:40 30.04985 -90.49643 37937 ft 398 kts 290°
2026-05-06 10:41 30.07307 -90.55423 37937 ft 397 kts 290°
2026-05-06 10:41 30.09624 -90.61198 37936 ft 397 kts 290°
2026-05-06 10:42 30.11957 -90.67024 37936 ft 398 kts 290°
2026-05-06 10:42 30.14270 -90.72808 37938 ft 397 kts 290°
2026-05-06 10:43 30.16572 -90.78573 37939 ft 396 kts 290°
2026-05-06 10:44 30.20018 -90.87219 37938 ft 395 kts 290°
2026-05-06 10:44 30.22312 -90.92988 37937 ft 395 kts 290°
2026-05-06 10:45 30.24602 -90.98756 37936 ft 395 kts 289°
2026-05-06 10:45 30.26829 -91.04375 37937 ft 395 kts 289°
2026-05-06 10:46 30.29112 -91.10142 37930 ft 395 kts 289°
2026-05-06 10:46 30.31387 -91.15900 37928 ft 395 kts 289°
2026-05-06 10:47 30.33659 -91.21658 37927 ft 394 kts 289°
2026-05-06 10:47 30.35927 -91.27414 37928 ft 393 kts 289°
2026-05-06 10:48 30.38183 -91.33149 37927 ft 392 kts 289°
2026-05-06 10:48 30.40435 -91.38884 37922 ft 391 kts 289°
2026-05-06 10:49 30.42678 -91.44604 37930 ft 391 kts 289°
2026-05-06 10:49 30.44916 -91.50320 37924 ft 390 kts 289°
2026-05-06 10:50 30.47151 -91.56039 37921 ft 390 kts 289°
2026-05-06 10:50 30.49385 -91.61764 37917 ft 390 kts 289°
2026-05-06 10:51 30.51623 -91.67509 37920 ft 390 kts 289°
2026-05-06 10:51 30.53848 -91.73229 37920 ft 389 kts 289°
2026-05-06 10:52 30.56063 -91.78932 37915 ft 388 kts 289°
2026-05-06 10:52 30.58273 -91.84630 37914 ft 387 kts 289°
2026-05-06 10:53 30.60477 -91.90324 37916 ft 387 kts 288°
2026-05-06 10:53 30.62680 -91.96024 37911 ft 388 kts 289°
2026-05-06 10:54 30.64882 -92.01731 37913 ft 388 kts 288°
2026-05-06 10:54 30.67082 -92.07436 37912 ft 387 kts 288°
2026-05-06 10:55 30.69275 -92.13136 37910 ft 387 kts 288°
2026-05-06 10:55 30.71463 -92.18834 37912 ft 387 kts 288°
2026-05-06 10:56 30.73647 -92.24528 37902 ft 386 kts 288°
2026-05-06 10:56 30.75822 -92.30208 37904 ft 385 kts 288°
2026-05-06 10:57 30.77991 -92.35881 37909 ft 385 kts 288°
2026-05-06 10:57 30.80157 -92.41557 37908 ft 385 kts 288°
2026-05-06 10:58 30.82320 -92.47234 37909 ft 384 kts 288°
2026-05-06 10:58 30.84478 -92.52906 37910 ft 384 kts 288°
2026-05-06 10:59 30.86628 -92.58567 37912 ft 383 kts 288°
2026-05-06 10:59 30.88776 -92.64233 37913 ft 384 kts 288°
2026-05-06 11:00 30.90933 -92.69931 37916 ft 384 kts 288°
2026-05-06 11:00 30.93081 -92.75612 37913 ft 383 kts 288°
2026-05-06 11:01 30.95218 -92.81272 37911 ft 382 kts 288°
2026-05-06 11:01 30.97348 -92.86925 37911 ft 382 kts 288°
2026-05-06 11:02 30.99475 -92.92581 37908 ft 382 kts 287°
2026-05-06 11:02 31.01604 -92.98247 37912 ft 382 kts 287°
2026-05-06 11:03 31.03373 -93.02966 37910 ft 381 kts 287°
2026-05-06 11:03 31.05843 -93.09562 37901 ft 382 kts 287°
2026-05-06 11:04 31.07960 -93.15225 37898 ft 382 kts 287°
2026-05-06 11:04 31.10077 -93.20900 37894 ft 382 kts 287°
2026-05-06 11:05 31.12212 -93.26629 37891 ft 381 kts 287°
2026-05-06 11:05 31.14318 -93.32292 37893 ft 381 kts 287°
2026-05-06 11:06 31.16419 -93.37950 37895 ft 381 kts 287°
2026-05-06 11:06 31.18519 -93.43612 37896 ft 381 kts 287°
2026-05-06 11:07 31.20617 -93.49281 37902 ft 380 kts 287°
2026-05-06 11:07 31.22823 -93.54896 38016 ft 382 kts 290°
2026-05-06 11:07 31.24011 -93.57660 38333 ft 379 kts 289°
2026-05-06 11:08 31.25183 -93.60393 38670 ft 375 kts 289°
2026-05-06 11:08 31.26341 -93.63095 38982 ft 371 kts 289°
2026-05-06 11:08 31.27496 -93.65797 39260 ft 369 kts 289°
2026-05-06 11:08 31.28650 -93.68498 39464 ft 368 kts 289°
2026-05-06 11:09 31.29790 -93.71171 39632 ft 368 kts 289°
2026-05-06 11:09 31.30929 -93.73844 39800 ft 368 kts 289°
2026-05-06 11:09 31.32068 -93.76521 39894 ft 369 kts 289°
2026-05-06 11:10 31.34365 -93.81928 39883 ft 374 kts 289°
2026-05-06 11:10 31.36689 -93.87404 39888 ft 378 kts 289°
2026-05-06 11:11 31.39029 -93.92923 39884 ft 380 kts 289°
2026-05-06 11:11 31.41371 -93.98455 39886 ft 380 kts 289°
2026-05-06 11:12 31.43711 -94.03989 39878 ft 379 kts 289°
2026-05-06 11:12 31.46045 -94.09519 39876 ft 379 kts 289°
2026-05-06 11:13 31.48373 -94.15042 39874 ft 379 kts 289°
2026-05-06 11:13 31.50696 -94.20563 39872 ft 379 kts 289°
2026-05-06 11:14 31.53015 -94.26082 39873 ft 378 kts 289°
2026-05-06 11:14 31.55326 -94.31592 39874 ft 377 kts 289°
2026-05-06 11:15 31.57634 -94.37102 39875 ft 377 kts 288°
2026-05-06 11:15 31.59938 -94.42611 39873 ft 377 kts 289°
2026-05-06 11:16 31.62240 -94.48122 39874 ft 376 kts 288°
2026-05-06 11:16 31.64539 -94.53636 39875 ft 376 kts 288°
2026-05-06 11:17 31.66835 -94.59153 39878 ft 377 kts 288°
2026-05-06 11:17 31.69125 -94.64663 39881 ft 376 kts 289°
2026-05-06 11:18 31.71426 -94.70208 39882 ft 377 kts 288°
2026-05-06 11:18 31.73715 -94.75730 39879 ft 376 kts 288°
2026-05-06 11:19 31.75993 -94.81236 39880 ft 375 kts 288°
2026-05-06 11:19 31.78264 -94.86730 39875 ft 374 kts 288°
2026-05-06 11:20 31.80523 -94.92207 39877 ft 373 kts 288°
2026-05-06 11:20 31.82781 -94.97688 39881 ft 373 kts 287°
2026-05-06 11:21 31.85036 -95.03174 39888 ft 374 kts 288°
2026-05-06 11:21 31.87292 -95.08669 39888 ft 374 kts 288°
2026-05-06 11:22 31.89546 -95.14164 39887 ft 374 kts 288°
2026-05-06 11:22 31.91794 -95.19655 39886 ft 373 kts 287°
2026-05-06 11:23 31.94041 -95.25153 39888 ft 374 kts 288°
2026-05-06 11:23 31.96287 -95.30656 39891 ft 374 kts 287°
2026-05-06 11:24 31.98532 -95.36167 39892 ft 374 kts 287°
2026-05-06 11:24 32.00774 -95.41676 39888 ft 373 kts 287°
2026-05-06 11:25 32.03009 -95.47176 39887 ft 373 kts 287°
2026-05-06 11:25 32.05240 -95.52677 39886 ft 373 kts 287°
2026-05-06 11:26 32.07472 -95.58188 39902 ft 373 kts 287°
2026-05-06 11:26 32.09701 -95.63700 39889 ft 373 kts 287°
2026-05-06 11:27 32.11965 -95.69308 39891 ft 374 kts 287°
2026-05-06 11:27 32.14189 -95.74827 39892 ft 373 kts 287°
2026-05-06 11:28 32.16029 -95.80444 39889 ft 366 kts 282°
2026-05-06 11:28 32.17725 -95.86089 39904 ft 366 kts 281°
2026-05-06 11:29 32.19424 -95.91742 39895 ft 366 kts 281°
2026-05-06 11:29 32.21122 -95.97395 39893 ft 367 kts 281°
2026-05-06 11:30 32.22821 -96.03057 39903 ft 367 kts 281°
2026-05-06 11:30 32.24521 -96.08722 39904 ft 367 kts 281°
2026-05-06 11:31 32.26217 -96.14387 39904 ft 366 kts 281°
2026-05-06 11:31 32.27909 -96.20046 39903 ft 366 kts 281°
2026-05-06 11:32 32.29595 -96.25693 39908 ft 365 kts 281°
2026-05-06 11:32 32.31279 -96.31341 39900 ft 365 kts 281°
2026-05-06 11:33 32.32957 -96.36981 39908 ft 364 kts 281°
2026-05-06 11:33 32.34630 -96.42610 39912 ft 364 kts 281°
2026-05-06 11:34 32.36302 -96.48251 39905 ft 364 kts 281°
2026-05-06 11:34 32.37972 -96.53892 39920 ft 364 kts 281°
2026-05-06 11:35 32.39638 -96.59531 39906 ft 364 kts 281°
2026-05-06 11:35 32.41301 -96.65167 39913 ft 364 kts 281°
2026-05-06 11:36 32.42976 -96.70856 39934 ft 364 kts 280°
2026-05-06 11:36 32.44635 -96.76503 39926 ft 364 kts 280°
2026-05-06 11:37 32.46289 -96.82139 39943 ft 363 kts 281°
2026-05-06 11:37 32.47940 -96.87780 39939 ft 363 kts 280°
2026-05-06 11:38 32.49585 -96.93409 39937 ft 363 kts 280°
2026-05-06 11:38 32.51228 -96.99042 39940 ft 363 kts 280°
2026-05-06 11:39 32.52868 -97.04673 39942 ft 362 kts 280°
2026-05-06 11:39 32.54503 -97.10303 39938 ft 362 kts 280°
2026-05-06 11:40 32.56136 -97.15932 39946 ft 362 kts 280°
2026-05-06 11:40 32.57765 -97.21557 39951 ft 361 kts 280°
2026-05-06 11:41 32.59390 -97.27181 39949 ft 361 kts 279°
2026-05-06 11:41 32.61010 -97.32799 39948 ft 361 kts 279°
2026-05-06 11:42 32.62626 -97.38419 39951 ft 361 kts 280°
2026-05-06 11:42 32.64241 -97.44037 39950 ft 360 kts 279°
2026-05-06 11:43 32.65847 -97.49639 39956 ft 360 kts 279°
2026-05-06 11:43 32.67453 -97.55247 39954 ft 360 kts 279°
2026-05-06 11:44 32.69855 -97.63667 39962 ft 360 kts 280°
2026-05-06 11:44 32.71465 -97.69318 39965 ft 361 kts 279°
2026-05-06 11:45 32.73185 -97.74934 39943 ft 367 kts 283°
2026-05-06 11:45 32.75328 -97.80428 39957 ft 367 kts 284°
2026-05-06 11:46 32.77460 -97.85910 39962 ft 365 kts 284°
2026-05-06 11:46 32.79582 -97.91381 39962 ft 365 kts 283°
2026-05-06 11:47 32.81698 -97.96851 39972 ft 365 kts 284°
2026-05-06 11:47 32.83806 -98.02310 39968 ft 364 kts 284°
2026-05-06 11:48 32.85912 -98.07777 39980 ft 365 kts 284°
2026-05-06 11:48 32.88014 -98.13247 39967 ft 365 kts 284°
2026-05-06 11:49 32.90116 -98.18722 39972 ft 365 kts 284°
2026-05-06 11:49 32.92215 -98.24201 39964 ft 365 kts 283°
2026-05-06 11:50 32.94313 -98.29685 39974 ft 365 kts 284°
2026-05-06 11:50 32.96408 -98.35173 39974 ft 365 kts 283°
2026-05-06 11:51 32.98501 -98.40661 39981 ft 365 kts 284°
2026-05-06 11:51 33.00589 -98.46149 39983 ft 364 kts 283°
2026-05-06 11:52 33.02673 -98.51633 39988 ft 364 kts 284°
2026-05-06 11:52 33.04755 -98.57124 39993 ft 364 kts 284°
2026-05-06 11:53 33.06834 -98.62615 39987 ft 364 kts 284°
2026-05-06 11:53 33.08926 -98.68152 39984 ft 365 kts 283°
2026-05-06 11:54 33.11008 -98.73666 39982 ft 364 kts 283°
2026-05-06 11:54 33.13075 -98.79150 39984 ft 363 kts 283°
2026-05-06 11:55 33.15139 -98.84639 39987 ft 363 kts 283°
2026-05-06 11:55 33.17198 -98.90123 39986 ft 363 kts 283°
2026-05-06 11:56 33.19256 -98.95612 39988 ft 363 kts 283°
2026-05-06 11:56 33.21309 -99.01100 39986 ft 363 kts 283°
2026-05-06 11:57 33.23364 -99.06599 39995 ft 363 kts 283°
2026-05-06 11:57 33.25415 -99.12096 39991 ft 363 kts 283°
2026-05-06 11:58 33.27464 -99.17598 39990 ft 363 kts 283°
2026-05-06 11:58 33.29508 -99.23097 39992 ft 363 kts 283°
2026-05-06 11:59 33.31553 -99.28604 40001 ft 363 kts 283°
2026-05-06 11:59 33.33594 -99.34113 39996 ft 363 kts 283°
2026-05-06 12:00 33.35633 -99.39626 39994 ft 363 kts 283°
2026-05-06 12:00 33.37671 -99.45144 39995 ft 363 kts 283°
2026-05-06 12:01 33.39702 -99.50653 39999 ft 363 kts 283°
2026-05-06 12:01 33.41731 -99.56166 39997 ft 363 kts 283°
2026-05-06 12:02 33.43762 -99.61693 40003 ft 364 kts 283°
2026-05-06 12:02 33.45795 -99.67236 40026 ft 364 kts 283°
2026-05-06 12:03 33.47823 -99.72775 40024 ft 364 kts 283°
2026-05-06 12:03 33.49840 -99.78289 40026 ft 362 kts 282°
2026-05-06 12:04 33.51847 -99.83789 40024 ft 361 kts 282°
2026-05-06 12:04 33.53847 -99.89279 40024 ft 360 kts 282°
2026-05-06 12:05 33.55844 -99.94769 40033 ft 360 kts 282°
2026-05-06 12:05 33.57841 -100.00272 40030 ft 361 kts 282°
2026-05-06 12:06 33.59833 -100.05768 40028 ft 360 kts 282°
2026-05-06 12:06 33.61821 -100.11262 40027 ft 360 kts 282°
2026-05-06 12:07 33.63805 -100.16756 40034 ft 360 kts 282°
2026-05-06 12:07 33.65779 -100.22251 40040 ft 359 kts 281°
2026-05-06 12:08 33.67629 -100.27780 40041 ft 358 kts 281°
2026-05-06 12:08 33.69473 -100.33324 40039 ft 358 kts 281°
2026-05-06 12:09 33.71315 -100.38874 40033 ft 359 kts 281°
2026-05-06 12:09 33.73156 -100.44429 40033 ft 359 kts 281°
2026-05-06 12:10 33.74994 -100.49982 40039 ft 359 kts 281°
2026-05-06 12:10 33.76829 -100.55537 40033 ft 359 kts 281°
2026-05-06 12:11 33.78664 -100.61104 40036 ft 359 kts 281°
2026-05-06 12:11 33.80502 -100.66689 40038 ft 360 kts 281°
2026-05-06 12:12 33.82338 -100.72282 40040 ft 360 kts 281°
2026-05-06 12:12 33.84170 -100.77866 40035 ft 360 kts 281°
2026-05-06 12:13 33.85995 -100.83438 40039 ft 359 kts 281°
2026-05-06 12:13 33.87817 -100.89016 40027 ft 359 kts 280°
2026-05-06 12:14 33.89634 -100.94587 40036 ft 358 kts 281°
2026-05-06 12:14 33.91446 -101.00152 40026 ft 358 kts 280°
2026-05-06 12:15 33.93168 -101.05455 40034 ft 358 kts 281°
2026-05-06 12:15 33.94971 -101.11010 40032 ft 357 kts 280°
2026-05-06 12:16 33.96768 -101.16559 40024 ft 357 kts 279°
2026-05-06 12:16 33.98563 -101.22114 40014 ft 357 kts 280°
2026-05-06 12:17 34.00356 -101.27668 40007 ft 356 kts 279°
2026-05-06 12:17 34.02142 -101.33213 40014 ft 356 kts 279°
2026-05-06 12:18 34.03927 -101.38766 40016 ft 356 kts 280°
2026-05-06 12:18 34.05708 -101.44315 40014 ft 356 kts 280°
2026-05-06 12:19 34.07485 -101.49862 40019 ft 355 kts 279°
2026-05-06 12:19 34.09256 -101.55400 40027 ft 355 kts 280°
2026-05-06 12:20 34.11029 -101.60954 40042 ft 354 kts 280°
2026-05-06 12:20 34.12797 -101.66507 40056 ft 355 kts 280°
2026-05-06 12:21 34.14561 -101.72056 40053 ft 355 kts 279°
2026-05-06 12:21 34.16320 -101.77593 40051 ft 353 kts 279°
2026-05-06 12:22 34.18068 -101.83110 40044 ft 352 kts 279°
2026-05-06 12:22 34.19812 -101.88625 40030 ft 352 kts 279°
2026-05-06 12:23 34.21553 -101.94142 40033 ft 352 kts 279°
2026-05-06 12:23 34.23290 -101.99655 40033 ft 352 kts 279°
2026-05-06 12:24 34.25025 -102.05171 40028 ft 352 kts 279°
2026-05-06 12:24 34.26758 -102.10693 40028 ft 353 kts 279°
2026-05-06 12:25 34.28492 -102.16227 40031 ft 353 kts 279°
2026-05-06 12:25 34.30225 -102.21767 40031 ft 353 kts 279°
2026-05-06 12:26 34.31955 -102.27308 40030 ft 353 kts 279°
2026-05-06 12:26 34.33682 -102.32851 40035 ft 353 kts 279°
2026-05-06 12:27 34.35409 -102.38403 40036 ft 354 kts 279°
2026-05-06 12:27 34.37133 -102.43953 40041 ft 353 kts 279°
2026-05-06 12:28 34.38853 -102.49502 40045 ft 353 kts 279°
2026-05-06 12:28 34.40572 -102.55059 40044 ft 353 kts 279°
2026-05-06 12:29 34.42289 -102.60620 40044 ft 354 kts 278°
2026-05-06 12:29 34.44011 -102.66207 40048 ft 355 kts 278°
2026-05-06 12:30 34.45732 -102.71803 40047 ft 355 kts 278°
2026-05-06 12:30 34.47447 -102.77384 40049 ft 354 kts 279°
2026-05-06 12:31 34.49152 -102.82959 40051 ft 352 kts 277°
2026-05-06 12:31 34.50229 -102.88599 40051 ft 342 kts 271°
2026-05-06 12:32 34.51090 -102.94257 40055 ft 342 kts 271°
2026-05-06 12:32 34.51953 -102.99923 40052 ft 343 kts 271°
2026-05-06 12:33 34.52819 -103.05607 40046 ft 344 kts 271°
2026-05-06 12:33 34.53685 -103.11294 40050 ft 344 kts 270°
2026-05-06 12:34 34.54551 -103.16998 40055 ft 345 kts 271°
2026-05-06 12:34 34.55417 -103.22708 40050 ft 346 kts 270°
2026-05-06 12:35 34.56282 -103.28431 40054 ft 346 kts 270°
2026-05-06 12:35 34.57145 -103.34153 40050 ft 346 kts 271°
2026-05-06 12:36 34.58007 -103.39881 40047 ft 346 kts 271°
2026-05-06 12:36 34.58866 -103.45609 40048 ft 346 kts 270°
2026-05-06 12:37 34.59723 -103.51348 40051 ft 347 kts 270°
2026-05-06 12:37 34.60580 -103.57095 40046 ft 347 kts 270°
2026-05-06 12:38 34.61436 -103.62860 40047 ft 348 kts 270°
2026-05-06 12:38 34.62293 -103.68654 40048 ft 349 kts 270°
2026-05-06 12:39 34.63147 -103.74444 40046 ft 350 kts 270°
2026-05-06 12:39 34.64000 -103.80233 40043 ft 349 kts 270°
2026-05-06 12:40 34.64848 -103.86019 40037 ft 349 kts 270°
2026-05-06 12:40 34.65694 -103.91815 40048 ft 350 kts 270°
2026-05-06 12:41 34.66540 -103.97629 40049 ft 351 kts 270°
2026-05-06 12:41 34.67386 -104.03455 40054 ft 351 kts 270°
2026-05-06 12:42 34.68229 -104.09285 40049 ft 351 kts 270°
2026-05-06 12:42 34.69069 -104.15121 40046 ft 352 kts 270°
2026-05-06 12:43 34.69909 -104.20968 40041 ft 353 kts 270°
2026-05-06 12:43 34.70746 -104.26820 40043 ft 353 kts 270°
2026-05-06 12:44 34.71584 -104.32702 40044 ft 354 kts 270°
2026-05-06 12:44 34.72421 -104.38588 40041 ft 355 kts 270°
2026-05-06 12:45 34.73256 -104.44494 40043 ft 356 kts 270°
2026-05-06 12:46 34.74509 -104.53386 39990 ft 359 kts 270°
2026-05-06 12:46 34.74928 -104.56384 39559 ft 362 kts 270°
2026-05-06 12:46 34.75349 -104.59364 39104 ft 356 kts 270°
2026-05-06 12:46 34.75762 -104.62293 38665 ft 350 kts 269°
2026-05-06 12:47 34.76170 -104.65199 38228 ft 348 kts 269°
2026-05-06 12:47 34.76576 -104.68113 37774 ft 347 kts 269°
2026-05-06 12:47 34.76976 -104.70993 37321 ft 347 kts 269°
2026-05-06 12:47 34.77376 -104.73873 36866 ft 347 kts 269°
2026-05-06 12:48 34.77774 -104.76757 36404 ft 348 kts 269°
2026-05-06 12:48 34.78174 -104.79649 35947 ft 348 kts 269°
2026-05-06 12:48 34.78573 -104.82546 35484 ft 349 kts 269°
2026-05-06 12:48 34.78972 -104.85445 35016 ft 349 kts 269°
2026-05-06 12:49 34.79372 -104.88354 34567 ft 351 kts 269°
2026-05-06 12:49 34.79772 -104.91281 34091 ft 353 kts 270°
2026-05-06 12:49 34.80174 -104.94218 33628 ft 354 kts 269°
2026-05-06 12:49 34.80577 -104.97167 33171 ft 356 kts 269°
2026-05-06 12:50 34.80981 -105.00133 32699 ft 357 kts 269°
2026-05-06 12:50 34.81387 -105.03117 32203 ft 358 kts 269°
2026-05-06 12:50 34.81792 -105.06086 31746 ft 356 kts 270°
2026-05-06 12:50 34.82195 -105.09044 31283 ft 353 kts 270°
2026-05-06 12:51 34.82591 -105.11976 30804 ft 352 kts 270°
2026-05-06 12:51 34.82985 -105.14895 30341 ft 348 kts 270°
2026-05-06 12:51 34.83376 -105.17784 29880 ft 346 kts 270°
2026-05-06 12:51 34.83765 -105.20644 29417 ft 342 kts 270°
2026-05-06 12:52 34.84149 -105.23482 28965 ft 339 kts 270°
2026-05-06 12:52 34.84526 -105.26298 28513 ft 338 kts 270°
2026-05-06 12:52 34.84903 -105.29105 28073 ft 336 kts 270°
2026-05-06 12:52 34.85278 -105.31899 27626 ft 335 kts 270°
2026-05-06 12:53 34.85652 -105.34675 27194 ft 333 kts 271°
2026-05-06 12:53 34.86018 -105.37441 26741 ft 331 kts 271°
2026-05-06 12:53 34.86385 -105.40189 26282 ft 330 kts 271°
2026-05-06 12:53 34.86749 -105.42925 25871 ft 327 kts 271°
2026-05-06 12:54 34.87110 -105.45643 25440 ft 326 kts 271°
2026-05-06 12:54 34.87470 -105.48363 25013 ft 325 kts 272°
2026-05-06 12:54 34.87828 -105.51066 24577 ft 324 kts 271°
2026-05-06 12:54 34.88184 -105.53763 24161 ft 323 kts 272°
2026-05-06 12:55 34.88539 -105.56454 23716 ft 322 kts 272°
2026-05-06 12:55 34.88892 -105.59138 23299 ft 322 kts 272°
2026-05-06 12:55 34.89243 -105.61817 22878 ft 321 kts 273°
2026-05-06 12:55 34.89593 -105.64487 22445 ft 320 kts 273°
2026-05-06 12:56 34.89944 -105.67170 22035 ft 320 kts 273°
2026-05-06 12:56 34.90293 -105.69842 21615 ft 321 kts 272°
2026-05-06 12:56 34.90642 -105.72524 21193 ft 322 kts 274°
2026-05-06 12:56 34.90991 -105.75209 20756 ft 322 kts 274°
2026-05-06 12:57 34.91340 -105.77894 20345 ft 323 kts 274°
2026-05-06 12:57 34.91689 -105.80589 19903 ft 323 kts 274°
2026-05-06 12:57 34.92038 -105.83286 19470 ft 324 kts 275°
2026-05-06 12:57 34.92390 -105.85998 19039 ft 325 kts 275°
2026-05-06 12:58 34.92741 -105.88706 18636 ft 326 kts 276°
2026-05-06 12:58 34.93092 -105.91432 18185 ft 326 kts 276°
2026-05-06 12:58 34.93442 -105.94165 17741 ft 328 kts 276°
2026-05-06 12:58 34.93793 -105.96893 17279 ft 328 kts 276°
2026-05-06 12:59 34.94142 -105.99615 16841 ft 323 kts 276°
2026-05-06 12:59 34.94489 -106.02319 16389 ft 325 kts 277°
2026-05-06 12:59 34.94834 -106.05014 15992 ft 321 kts 277°
2026-05-06 12:59 34.95176 -106.07697 15544 ft 320 kts 277°
2026-05-06 13:00 34.95512 -106.10360 15125 ft 318 kts 277°
2026-05-06 13:00 34.95621 -106.13019 14693 ft 313 kts 267°
2026-05-06 13:00 34.95478 -106.15637 14182 ft 308 kts 266°
2026-05-06 13:00 34.95335 -106.18206 13702 ft 303 kts 267°
2026-05-06 13:01 34.95198 -106.20730 13239 ft 297 kts 267°
2026-05-06 13:01 34.95061 -106.23200 12796 ft 289 kts 268°
2026-05-06 13:01 34.94930 -106.25594 12380 ft 280 kts 267°
2026-05-06 13:01 34.94801 -106.27927 11963 ft 273 kts 267°
2026-05-06 13:02 34.94674 -106.30201 11564 ft 266 kts 268°
2026-05-06 13:02 34.94557 -106.32418 11161 ft 260 kts 268°
2026-05-06 13:02 34.94443 -106.34591 10773 ft 255 kts 268°
2026-05-06 13:02 34.94327 -106.36712 10392 ft 249 kts 268°
2026-05-06 13:03 34.94197 -106.38799 10018 ft 245 kts 264°
2026-05-06 13:03 34.93736 -106.40782 9693 ft 241 kts 252°
2026-05-06 13:03 34.93163 -106.42633 9605 ft 228 kts 252°
2026-05-06 13:03 34.92613 -106.44445 9365 ft 228 kts 252°
2026-05-06 13:04 34.92079 -106.46248 9151 ft 224 kts 256°
2026-05-06 13:04 34.91868 -106.48108 8949 ft 222 kts 274°
2026-05-06 13:04 34.92185 -106.49938 8677 ft 222 kts 292°
2026-05-06 13:04 34.92989 -106.51524 8393 ft 221 kts 310°
2026-05-06 13:05 34.94189 -106.52696 8112 ft 222 kts 329°
2026-05-06 13:05 34.95645 -106.53305 7888 ft 223 kts 348°
2026-05-06 13:05 34.97195 -106.53241 7641 ft 223 kts
2026-05-06 13:05 34.98608 -106.52543 7390 ft 216 kts 28°
2026-05-06 13:06 34.99886 -106.51641 7139 ft 209 kts 27°
2026-05-06 13:06 35.01166 -106.50847 6838 ft 201 kts 16°
2026-05-06 13:06 35.02452 -106.50822 6615 ft 174 kts 341°
2026-05-06 13:06 35.03488 -106.51468 6395 ft 160 kts 315°
2026-05-06 13:07 35.04108 -106.52481 6199 ft 144 kts 289°
2026-05-06 13:07 35.04347 -106.53631 5990 ft 137 kts 269°
2026-05-06 13:07 35.04372 -106.54781 5821 ft 135 kts 267°
2026-05-06 13:07 35.04403 -106.55928 5660 ft 136 kts 264°
2026-05-06 13:08 35.04390 -106.57078 5489 ft 135 kts 267°
2026-05-06 13:08 35.04412 -106.58198 5354 ft 123 kts 267°
2026-05-06 13:08 35.04413 -106.58915 5338 ft 43 kts 268°
2026-05-06 13:08 35.04416 -106.59165 5335 ft 31 kts 272°
2026-05-06 13:09 35.04417 -106.59433 5333 ft 27 kts 272°
2026-05-06 13:09 35.04406 -106.59649 5331 ft 25 kts 255°
2026-05-06 13:09 35.04347 -106.59833 5329 ft 22 kts 241°
2026-05-06 13:09 35.04271 -106.59997 5328 ft 22 kts 250°
2026-05-06 13:10 35.04258 -106.60166 5326 ft 15 kts 271°
2026-05-06 13:10 35.04258 -106.60213 5327 ft 0 kts 271°
2026-05-06 13:11 35.04293 -106.60296 5326 ft 13 kts 290°
2026-05-06 13:11 35.04264 -106.60421 5325 ft 18 kts 245°
2026-05-06 13:11 35.04240 -106.60587 5324 ft 21 kts 270°
2026-05-06 13:11 35.04241 -106.60780 5324 ft 23 kts 270°
2026-05-06 13:12 35.04242 -106.60992 5323 ft 22 kts 270°
2026-05-06 13:12 35.04243 -106.61168 5322 ft 16 kts 270°
2026-05-06 13:12 35.04241 -106.61272 5322 ft 15 kts 264°
2026-05-06 13:12 35.04209 -106.61375 5321 ft 14 kts 192°
2026-05-06 13:13 35.04097 -106.61382 5321 ft 17 kts 181°
2026-05-06 13:13 35.03964 -106.61385 5321 ft 20 kts 181°
2026-05-06 13:13 35.03863 -106.61398 5320 ft 13 kts 208°
2026-05-06 13:13 35.03863 -106.61505 5320 ft 16 kts 307°
2026-05-06 13:14 35.03939 -106.61622 5319 ft 16 kts 307°
2026-05-06 13:14 35.03972 -106.61703 5319 ft 10 kts 274°
2026-05-06 13:14 35.03973 -106.61808 5318 ft 14 kts 272°
2026-05-06 13:14 35.03974 -106.61937 5317 ft 13 kts 270°
2026-05-06 13:15 35.03953 -106.62039 5316 ft 13 kts 222°
2026-05-06 13:15 35.03879 -106.62046 5316 ft 10 kts 149°
2026-05-06 13:15 35.03838 -106.61994 5317 ft 7 kts 130°
2026-05-06 13:15 35.03788 -106.61954 5317 ft 10 kts 179°
2026-05-06 13:16 35.03730 -106.61973 5317 ft 7 kts 202°
2026-05-06 13:16 35.03725 -106.62015 5317 ft 2 kts 332°
2026-05-06 13:16 35.03734 -106.62015 5317 ft 0 kts 14°